Regional Weather Roundup
Issued by NWS

Home | Current Version | Previous Version | Text Only | Print | Product List | Glossary Off
Versions: 1 2 3 4 5 6 7 8 9 10 11 12 13 14 15 16 17 18 19 20 21 22 23 24 25 26 27 28 29 30 31 32 33 34 35 36 37 38 39 40 41 42 43 44 45 46 47 48 49 50

000
ASUS43 KIND 221009
RWRIN

WEATHER ROUNDUP FOR INDIANA
NATIONAL WEATHER SERVICE INDIANAPOLIS IN
600 AM EDT SAT JUL 22 2017

NOTE: "FAIR" INDICATES FEW OR NO CLOUDS BELOW 12,000 FEET WITH NO
SIGNIFICANT WEATHER AND/OR OBSTRUCTIONS TO VISIBILITY.

* - STATION DOES NOT REPORT WEATHER SUCH AS PRECIPITATION OR FOG.

+ - STATION NOT QUALITY CONTROLLED BY THE NATIONAL WEATHER SERVICE.
    USE DATA WITH CAUTION...ESPECIALLY DEWPOINT AND RELATIVE
    HUMIDITY OBSERVATIONS.

INZ001>003-010>013-019-020-221100-
NORTHWEST INDIANA

CITY           SKY/WX    TMP DP  RH WIND       PRES   REMARKS
GARY /AIRPORT/ TSTM      73  72  94 SW5       29.86R
KNOX *+        CLOUDY    72  70  94 S6        29.83R
LA PORTE +     CLOUDY    71  70  97 SW3       29.86R
MICHIGAN CITY+ LGT RAIN  70  70 100 S8        29.82F
MONTICELLO +   CLOUDY    71  70  96 SE5       29.84S
RENSSELAER +   CLOUDY    72  70  94 W9        29.87R
VALPARAISO     CLOUDY    73  72  96 W3        29.86R

$$

LMZ046-743>745-221100-
SOUTHERN LAKE MICHIGAN

STATION/POSITION TIME  TEMP    WIND        PRES    WAVE
                       AIR SEA DIR/SP/G            HT
                 (UTC) (F)     (DEG/KT/KT) (MB)    (FT)
BURNS HARBOR     0940   72     260/ 14/ 16 1011.2R
MICHIGAN CITY    0940   72     170/ 10/ 12   N/A
5NW MICH CITY    1000   73 74  200/ 16/ 21   N/A     1

$$

INZ004-005-014>016-021>024-221100-
NORTH CENTRAL INDIANA

CITY           SKY/WX    TMP DP  RH WIND       PRES   REMARKS
GOSHEN         CLOUDY    72  69  90 SE9       29.83F
LOGANSPORT +   HVY RAIN  72  70  94 S14       29.86F
PERU/GRISSOM   CLOUDY    72  72 100 S7        29.84F
ROCHESTER +    CLOUDY   N/A N/A N/A S8        29.85F
SOUTH BEND     LGT RAIN  71  71 100 S13       29.82F
WARSAW +       CLOUDY    70  70 100 SE3       29.84F

$$

INZ006>009-017-018-025>027-221100-
NORTHEAST INDIANA

CITY           SKY/WX    TMP DP  RH WIND       PRES   REMARKS
AUBURN +       LGT RAIN  70  68  94 CALM      29.88F
FORT WAYNE     LGT RAIN  71  68  90 S5        29.86F
HUNTINGTON +   CLOUDY    69  67  96 S3        29.86F
KENDALLVILLE + CLOUDY    69  69 100 S6        29.88F FOG

$$

INZ028-029-035-036-043>045-051>053-221100-
WEST CENTRAL INDIANA

CITY           SKY/WX    TMP DP  RH WIND       PRES   REMARKS
GREENCASTLE +  CLOUDY    72  70  94 SE3       29.91S
LAFAYETTE      CLOUDY    72  71  97 SE5       29.84F
TERRE HAUTE    CLOUDY    79  74  84 S5        29.87R

$$

INZ030>032-037>040-046>048-054>057-064-065-221100-
CENTRAL INDIANA

CITY           SKY/WX    TMP DP  RH WIND       PRES   REMARKS
CP ATTERBURY + CLOUDY    79  73  83 N6        29.92R
FRANKFORT +    CLOUDY    74  73  94 CALM      29.88F THUNDER
INDIANAPOLIS   CLOUDY    75  69  81 NE5       29.90S
-EAGLE CREEK   CLOUDY    75  68  78 E3        29.89F
KOKOMO +       LGT RAIN  72  69  90 E3        29.87F
MARION +       CLOUDY    70  70 100 CALM      29.89F
MT COMFORT *+  CLOUDY    72  70  94 N6        29.92F
SHELBYVILLE    CLOUDY    76  67  73 N5        29.91R
ZIONSVILLE +   DRIZZLE   72  70  93 CALM      29.89F

$$

INZ033-034-041-042-049-050-058-059-221100-
EAST CENTRAL INDIANA

CITY           SKY/WX    TMP DP  RH WIND       PRES   REMARKS
MUNCIE         LGT RAIN  74  70  87 W5        29.88F
RICHMOND +     LGT RAIN  70  68  94 NW9       29.95R

$$

INZ060-061-067>069-081>083-085>088-221100-
SOUTHWEST INDIANA

CITY           SKY/WX    TMP DP  RH WIND       PRES   REMARKS
EVANSVILLE     CLEAR     80  74  81 SW7       29.90F
HUNTINGBURG *+ CLEAR     79  76  90 SW8       29.91F

$$

INZ062-063-066-070>080-084-089>092-221100-
SOUTH CENTRAL AND SOUTHEAST INDIANA

CITY           SKY/WX    TMP DP  RH WIND       PRES   REMARKS
BEDFORD +      PTCLDY    79  72  78 CALM      29.90S
BLOOMINGTON    PTCLDY    80  73  79 W6        29.90R
MADISON *+     CLOUDY    77  73  88 S5        29.93F
NORTH VERNON + MOCLDY    75  73  94 SW5       29.91S
SEYMOUR +      PTCLDY    79  75  89 S7        29.89F

$$




USA.gov is the U.S. government's official web portal to all federal, state and local government web resources and services.